Date String (YYYY-MM-DD hh:mm:ss) UTC,Instrument flags,Ambient pressure (hPa),Sample flow (lpm),Bypass flow (lpm),Sample temperature (°C),Ambient temperature (°C),ASC tube jacket temperature (°C),LED temperature (°C),Box temperature (°C),Sample RH (%),Span deviation,Mass concentration (μg/m³),Mass concentration (μg/m³),Mass concentration (μg/m³)
DateTimeUTC,F1_M11,P_M11,Q1_M11,Q2_M11,T1_M11,T2_M11,T3_M11,T4_M11,T5_M11,U1_M11,ZSPAN_M11,X0_M11,X2_M11,X1_M11
2023-01-05 01:00:00,,0823.6,4.99,0.00,22.0,21.4,00.0,30.8,23.8,07.9,0000.0,0001.61,0001.05,0000.81
2023-01-05 01:01:00,,0823.5,5.01,0.00,22.1,22.5,00.0,30.8,24.1,08.3,0000.0,0002.72,0001.14,0000.86
2023-01-05 01:02:00,,0823.5,5.00,0.00,22.2,22.5,00.0,30.9,24.2,07.4,0000.0,0003.12,0001.20,0000.90
2023-01-05 01:03:00,,0823.6,4.99,0.00,22.2,21.9,00.0,31.0,24.1,07.5,0000.0,0003.34,0001.29,0000.96
2023-01-05 01:04:00,,0823.7,5.00,0.00,22.2,21.4,00.0,31.0,23.9,07.3,0000.0,0003.60,0001.48,0001.13
2023-01-05 01:05:00,,0823.7,5.01,0.00,22.1,21.0,00.0,31.0,23.7,07.4,0000.0,0003.95,0001.71,0001.34
2023-01-05 01:06:00,,0823.7,5.00,0.00,22.1,20.8,00.0,31.0,23.6,07.5,0000.0,0004.78,0002.06,0001.65
2023-01-05 01:07:00,,0823.7,5.01,0.00,22.0,20.6,00.0,30.9,23.6,07.2,0000.0,0005.33,0002.25,0001.86
2023-01-05 01:08:00,,0823.7,5.01,0.00,22.0,20.5,00.0,30.9,23.5,07.5,0000.0,0005.39,0002.32,0001.95
2023-01-05 01:09:00,,0823.8,5.00,0.00,22.0,20.3,00.0,30.9,23.5,07.8,0000.0,0005.48,0002.23,0001.83
2023-01-05 01:10:00,,0823.7,4.99,0.00,21.9,20.3,00.0,30.9,23.4,07.4,0000.0,0005.47,0002.16,0001.74
2023-01-05 01:11:00,,0823.7,5.00,0.00,21.9,20.2,00.0,30.9,23.4,07.0,0000.0,0005.56,0002.16,0001.72
2023-01-05 01:12:00,,0823.7,5.01,0.00,21.9,20.6,00.0,30.8,23.5,07.2,0000.0,0004.47,0002.12,0001.71
2023-01-05 01:13:00,,0823.7,5.01,0.00,22.0,21.8,00.0,30.8,23.8,07.1,0000.0,0004.13,0002.09,0001.70
2023-01-05 01:14:00,,0823.8,5.00,0.00,22.1,22.7,00.0,30.8,24.1,07.3,0000.0,0004.55,0002.22,0001.81
2023-01-05 01:15:00,,0823.7,4.99,0.00,22.2,22.5,00.0,30.9,24.1,07.4,0000.0,0005.88,0002.74,0002.25
2023-01-05 01:16:00,,0823.8,5.00,0.00,22.2,21.8,00.0,30.9,23.9,06.9,0000.0,0005.94,0002.76,0002.27
2023-01-05 01:17:00,,0823.8,5.01,0.00,22.1,21.2,00.0,30.9,23.8,07.3,0000.0,0005.61,0002.81,0002.29
2023-01-05 01:18:00,,0823.8,5.00,0.00,22.0,20.7,00.0,31.0,23.6,07.1,0000.0,0005.50,0002.95,0002.44
2023-01-05 01:19:00,,0823.8,5.00,0.00,22.0,20.5,00.0,30.9,23.5,07.0,0000.0,0005.47,0002.94,0002.43
2023-01-05 01:20:00,,0823.9,4.99,0.00,21.9,20.3,00.0,30.9,23.5,07.3,0000.0,0006.97,0003.23,0002.81
2023-01-05 01:21:00,,0823.9,5.00,0.00,21.9,20.1,00.0,30.9,23.4,08.4,0000.0,0008.08,0003.89,0003.50
2023-01-05 01:22:00,,0823.9,5.01,0.00,21.8,19.9,00.0,30.9,23.2,08.6,0000.0,0009.49,0004.77,0004.24
2023-01-05 01:23:00,,0824.0,4.99,0.00,21.7,19.7,00.0,30.9,23.2,08.6,0002.9,0011.33,0005.72,0005.00
2023-01-05 01:24:00,,0824.0,4.99,0.00,21.7,19.8,00.0,30.8,23.2,08.6,0003.3,0013.24,0006.63,0005.76
2023-01-05 01:25:00,,0824.0,5.01,0.00,21.8,21.1,00.0,30.7,23.5,08.6,0003.0,0014.73,0007.42,0006.45
2023-01-05 01:26:00,,0823.9,5.00,0.00,21.9,22.2,00.0,30.7,23.8,08.5,0002.3,0015.14,0007.85,0006.83
2023-01-05 01:27:00,,0823.9,4.99,0.00,22.0,22.4,00.0,30.8,24.0,08.5,0001.5,0017.21,0008.58,0007.42
2023-01-05 01:28:00,,0824.0,4.98,0.00,22.0,21.8,00.0,30.8,23.8,08.5,0001.6,0018.35,0009.30,0008.00
2023-01-05 01:29:00,,0824.1,5.03,0.00,22.0,21.2,00.0,30.9,23.6,08.5,0002.0,0019.42,0009.82,0008.48
2023-01-05 01:30:00,,0824.1,5.01,0.00,21.9,20.7,00.0,30.8,23.5,08.5,0001.8,0021.24,0010.54,0009.07
2023-01-05 01:31:00,,0824.1,4.99,0.00,21.9,20.3,00.0,30.8,23.4,08.5,0002.3,0021.83,0011.12,0009.54
2023-01-05 01:32:00,,0824.0,4.99,0.00,21.8,20.1,00.0,30.8,23.3,08.5,0002.2,0022.57,0011.42,0009.79
2023-01-05 01:33:00,,0824.1,5.00,0.00,21.8,20.1,00.0,30.8,23.3,08.5,0001.9,0022.40,0011.22,0009.69
2023-01-05 01:34:00,,0824.0,4.99,0.00,21.8,20.0,00.0,30.8,23.3,08.5,0001.5,0022.28,0011.10,0009.60
2023-01-05 01:35:00,,0824.0,4.99,0.00,21.7,19.9,00.0,30.8,23.3,08.5,0001.3,0021.31,0010.91,0009.48
2023-01-05 01:36:00,,0824.1,5.00,0.00,21.7,19.8,00.0,30.7,23.2,08.5,0001.6,0021.01,0010.71,0009.33
2023-01-05 01:37:00,,0824.1,5.02,0.00,21.7,19.8,00.0,30.7,23.2,08.5,0001.6,0020.67,0010.53,0009.17
2023-01-05 01:38:00,,0824.1,5.00,0.00,21.6,20.1,00.0,30.7,23.2,08.5,0003.1,0020.07,0010.25,0009.00
2023-01-05 01:39:00,,0824.2,4.99,0.00,21.7,21.3,00.0,30.6,23.5,08.5,0002.4,0019.41,0009.97,0008.84
2023-01-05 01:40:00,,0824.2,5.01,0.00,21.9,22.4,00.0,30.6,23.8,08.4,0001.8,0018.79,0009.77,0008.69
2023-01-05 01:41:00,,0824.2,4.99,0.00,22.0,22.4,00.0,30.7,23.9,08.3,0001.6,0017.55,0009.54,0008.54
2023-01-05 01:42:00,,0824.2,4.97,0.00,22.0,21.8,00.0,30.7,23.8,08.3,0001.1,0017.06,0009.41,0008.47
2023-01-05 01:43:00,,0824.3,5.00,0.00,22.0,21.3,00.0,30.7,23.7,08.3,0001.1,0016.32,0009.30,0008.39
2023-01-05 01:44:00,,0824.2,5.08,0.00,21.9,20.9,00.0,30.8,23.6,08.3,0001.4,0015.95,0009.26,0008.33
2023-01-05 01:45:00,,0824.2,4.97,0.00,21.9,20.6,00.0,30.8,23.5,08.2,0001.4,0015.36,0009.10,0008.23
2023-01-05 01:46:00,,0824.2,4.97,0.00,21.8,20.4,00.0,30.8,23.3,08.2,0000.8,0014.96,0008.94,0008.13
2023-01-05 01:47:00,,0824.2,5.05,0.00,21.8,20.2,00.0,30.8,23.3,08.2,0000.7,0015.84,0008.87,0008.06
2023-01-05 01:48:00,,0824.3,5.04,0.00,21.8,20.1,00.0,30.7,23.3,08.2,0000.7,0016.99,0008.78,0007.98
2023-01-05 01:49:00,,0824.4,4.98,0.00,21.8,20.0,00.0,30.7,23.3,08.2,0000.4,0016.27,0008.77,0007.96
2023-01-05 01:50:00,,0824.4,4.97,0.00,21.7,19.9,00.0,30.7,23.2,08.3,0001.3,0016.10,0008.73,0007.91
2023-01-05 01:51:00,,0824.5,5.01,0.00,21.7,19.9,00.0,30.7,23.2,08.2,0001.6,0016.36,0008.72,0007.88
2023-01-05 01:52:00,,0824.4,5.02,0.00,21.7,20.4,00.0,30.6,23.3,08.2,0002.2,0016.37,0008.68,0007.84
2023-01-05 01:53:00,,0824.4,4.99,0.00,21.8,21.6,00.0,30.6,23.6,08.1,0002.7,0016.23,0008.57,0007.74
2023-01-05 01:54:00,,0824.4,5.00,0.00,21.9,22.5,00.0,30.6,23.9,08.1,0002.1,0015.92,0008.34,0007.56
2023-01-05 01:55:00,,0824.6,4.99,0.00,22.0,22.4,00.0,30.7,24.0,08.0,0001.8,0015.78,0008.10,0007.37
2023-01-05 01:56:00,,0824.7,5.00,0.00,22.0,21.9,00.0,30.7,23.9,08.0,0002.4,0015.57,0007.92,0007.24
2023-01-05 01:57:00,,0824.8,5.01,0.00,22.0,21.4,00.0,30.8,23.8,08.0,0002.7,0015.32,0007.83,0007.17
2023-01-05 01:58:00,,0824.4,5.00,0.00,22.0,21.0,00.0,30.8,23.7,08.0,0002.6,0013.72,0007.72,0007.11
2023-01-05 01:59:00,,0824.6,5.00,0.00,22.0,20.8,00.0,30.8,23.6,08.0,0003.2,0012.39,0007.64,0007.05
